Regional Weather Roundup
Issued by NWS Jackson, KY

Home | Current Version | Previous Version | Graphics & Text | Print | Product List | Glossary Off
Versions: 1 2 3 4 5 6 7 8 9 10 11 12 13 14 15 16 17 18 19 20 21 22 23 24 25 26 27

000
ASUS43 KJKL 202110
RWRJKL

EAST KENTUCKY HOURLY WEATHER ROUNDUP
NATIONAL WEATHER SERVICE JACKSON KY
400 PM EST SAT JAN 20 2018

NOTE: "FAIR" INDICATES FEW OR NO CLOUDS BELOW 12,000 FEET WITH
NO SIGNIFICANT WEATHER AND/OR OBSTRUCTIONS TO VISIBILITY.

* THESE REPORTS ARE NOT UNDER NWS QUALITY CONTROL AND MAY NOT
  REPORT WEATHER SUCH AS PRECIPITATION AND FOG.

KYZ079-080-083-085-087-088-110-112-115-119-120-202200
...EASTERN KENTUCKY...

CITY           SKY/WX    TMP DP  RH WIND       PRES   REMARKS
JACKSON        CLOUDY    52  38  58 CALM      30.13R
LONDON         PTSUNNY   56  37  49 SW12      30.14R
SOMERSET*      CLOUDY    55  34  44 W10       30.17R
MONTICELLO*    PTSUNNY   56  34  43 W16       30.17R
WILLIAMSBURG*    N/A     59  32  36 SW5       30.15S
MIDDLESBORO*   PTSUNNY   53  32  44 S9        30.17S
HARLAN APT*      N/A     50  32  50 CALM      30.16S
PIKE CO APT*   CLOUDY    53  40  60 SW3       30.13R
BIG SANDY APT* CLOUDY    54  39  57 W6        30.13R
MOREHEAD APT*  CLOUDY    50  34  53 SW9G17    30.14R
ASHLAND*       PTSUNNY   51  34  52 W9        30.12R
$$

KYZ035-036-041-042-044-050-067-078-099-202200
...CENTRAL KENTUCKY...

CITY           SKY/WX    TMP DP  RH WIND       PRES   REMARKS
MT STERLING*   CLOUDY    48  36  61 W6        30.14R
FLEMING/MASON*   N/A     47  34  61 SW5       30.12S
DANVILLE*      CLOUDY    52  39  62 SW10      30.14R
LEXINGTON      CLOUDY    50  37  61 SW8       30.13R
FRANKFORT      CLOUDY    49  34  56 SW10      30.11R
LOUISVILLE     CLOUDY    51  41  68 SW10      30.10S
LEBANON*       MOCLDY    50  39  66 S13       30.13S
GLASGOW*       CLOUDY    53  38  58 CALM      30.14S
BOWLING GREEN  CLOUDY    54  40  59 S7        30.13F
$$

KYZ091>093-OHZ055-061-077-WVZ005-015-034-035-042-202200
...SOUTHERN OHIO/WEST VIRGINIA...

CITY           SKY/WX    TMP DP  RH WIND       PRES   REMARKS
COVINGTON      CLOUDY    46  32  58 S6        30.07S
COLUMBUS       PTSUNNY   44  28  53 SW12      30.06S
DAYTON         PTSUNNY   44  34  67 SW13      30.05R
WILMINGTON       N/A     43  32  65 SW7       30.06R
HUNTINGTON     CLOUDY    52  34  50 SW10      30.11R
CHARLESTON       N/A     55  36  48 SW15      30.10R
BECKLEY        CLOUDY    47  35  63 W16G22    30.12R
BLUEFIELD      PTSUNNY   46  34  62 W12       30.13R
LOGAN CO APT*  CLOUDY    52  37  58 W6        30.12R
$$

VAZ002-007-008-TNZ017-027-036-066-071-202200
...SOUTHWEST VIRGINIA/EAST TENNESSEE...

CITY           SKY/WX    TMP DP  RH WIND       PRES   REMARKS
WISE*          CLOUDY    46  34  61 SW8       30.16S
JONESVILLE*      N/A     50  32  50 CALM      30.21S
ABINGDON*      CLOUDY    50  36  59 W10       30.18S
BRISTOL        CLOUDY    51  37  58 W5        30.19S
MORRISTOWN*    MOCLDY    55  34  44 W8        30.18R
SEVIERVILLE*   CLOUDY    59  37  44 NW3       30.18S
KNOXVILLE      PTSUNNY   58  37  45 SW8       30.17F
LAFOLLETTE*    CLEAR     57  32  38 VRB5      30.20S
OAK RIDGE        N/A     58  32  37 S7        30.19S
CROSSVILLE       N/A     56  35  45 W13G21    30.18S
NASHVILLE        N/A     64  28  25 S12       30.14F
$$

...KEY TO REMARKS...
VSB - VISIBILITY IN MILES
WCI - WIND CHILL INDEX
HX  - HEAT INDEX

$$




USA.gov is the U.S. government's official web portal to all federal, state and local government web resources and services.